Flag for Germany Weather past 2 weeks in Demmin, Mecklenburg-Western Pomerania, Germany

Now
43 °F

Partly sunny.


Feels Like: 43 °F
Forecast: 46 / 65 °F
Wind: 2 mph from Southwest

Location: Greifswald

Current Time: May 24, 2015 at 5:45:55 AM

Latest Report: May 24, 2015 at 5:00 AM


Visibility: 8 mi

Pressure: 30.13 "Hg

Humidity: 95%

Dew point: 41 °F

Location of DemminLocation

Historic Weather in Demmin — Graph

°F

Demmin temperature yesterday

Maximum temperature yesterday: 56 °F (at 6:00 PM)
Minimum temperature yesterday: 48 °F (at 10:00 PM)
Average temperature yesterday: 54 °F

Past Weeks' High & Low Weather Summary

 TemperatureHumidityPressure
High76 °F (May 12, 2:00 PM)99% (May 10, 1:00 AM)30.38 "Hg (May 10, 1:00 AM)
Low38 °F (May 11, 6:00 AM)43% (May 11, 6:00 PM)29.57 "Hg (May 19, 5:00 AM)
Average52 °F74%30.02 "Hg
* Reported May 9 4:00 AM — May 24 4:00 AM, Demmin, Weather by CustomWeather, © 2015

Note: Actual official high and low records may vary slightly from our data, if they occured in-between our weather recording intervals... More about our weather records

Advertising

Demmin weather history for previous 24 hours

 ConditionsComfort  
Time TempWeatherWind HumidityBarometerVisibility
4:00 AM
Sun, May 24
42 °FPassing clouds.2 mph97%30.14 "Hg6 mi
3:00 AM43 °FClear.2 mph96%30.13 "Hg6 mi
2:00 AM44 °FClear.1 mph94%30.14 "Hg6 mi
1:00 AM45 °FClear.1 mph93%30.14 "Hg7 mi
12:00 AM45 °FClear.1 mph93%30.14 "Hg6 mi
10:00 PM
Sat, May 23
48 °FPassing clouds.1 mph82%30.14 "Hg14 mi
9:00 PM52 °FPassing clouds.2 mph70%30.13 "Hg19 mi
8:00 PM55 °FScattered clouds.3 mph63%30.12 "Hg22 mi
7:00 PM56 °FScattered clouds.5 mph58%30.12 "Hg19 mi
6:00 PM56 °FPassing clouds.6 mph57%30.12 "Hg16 mi
4:00 PM56 °FPartly sunny.3 mph68%30.13 "Hg31 mi
3:00 PM55 °FOvercast.3 mph72%30.13 "Hg25 mi
2:00 PM54 °FOvercast.5 mph78%30.12 "Hg28 mi
1:00 PM53 °FOvercast.6 mph82%30.13 "Hg25 mi
12:00 PM54 °FLight rain. Low clouds.5 mph90%30.12 "Hg19 mi
10:00 AM54 °FLight rain. Low clouds.3 mph89%30.12 "Hg5 mi
9:00 AM54 °FOvercast.5 mph83%30.11 "Hg7 mi
8:00 AM54 °FOvercast.5 mph80%30.11 "Hg10 mi
7:00 AM53 °FOvercast.2 mph79%30.10 "Hg11 mi
5:00 AM54 °FOvercast.2 mph79%30.10 "Hg16 mi
Weather by CustomWeather, © 2015

See weather overviewHow to use our weather pages